contact:dominique.lefevre@mio.osupytheas.fr, maurice.libes@osupytheas.fr, didier.mallarino@osupytheas.fr
Project:EMSO http://www.emso-fr.org/EMSO-France
Depth: 2436.0 m
Title:EMSO Ligure Ouest : Data MII capteur MICROCAT
DateTime_Computer,Latitude,Longitude,Temperature,Conductivity,Pressure,DateTime_Instrument
DateTime_Computer,Latitude,Longitude,degC,S m-1,dbar,DateTime_Instrument
2020-08-10T00:02:54Z,42.805,6.029,13.3028,4.60003,2470.18,2020-8-10T02:03:43Z
2020-08-10T00:05:57Z,42.805,6.029,13.3010,4.60014,2470.171,2020-8-10T02:06:46Z
2020-08-10T00:09:00Z,42.805,6.029,13.3010,4.60022,2470.18,2020-8-10T02:09:49Z
2020-08-10T00:12:04Z,42.805,6.029,13.3006,4.60011,2470.194,2020-8-10T02:12:52Z
2020-08-10T00:15:07Z,42.805,6.029,13.3030,4.60016,2470.18,2020-8-10T02:15:56Z
2020-08-10T00:18:10Z,42.805,6.029,13.3021,4.60003,2470.171,2020-8-10T02:18:59Z
2020-08-10T00:21:13Z,42.805,6.029,13.3018,4.60031,2470.18,2020-8-10T02:22:02Z
2020-08-10T00:24:16Z,42.805,6.029,13.3009,4.60010,2470.171,2020-8-10T02:25:05Z
2020-08-10T00:27:20Z,42.805,6.029,13.3000,4.60013,2470.156,2020-8-10T02:28:08Z
2020-08-10T00:30:23Z,42.805,6.029,13.3008,4.60010,2470.147,2020-8-10T02:31:12Z
2020-08-10T00:33:26Z,42.805,6.029,13.3009,4.60014,2470.171,2020-8-10T02:34:15Z
2020-08-10T00:36:29Z,42.805,6.029,13.3012,4.60008,2470.156,2020-8-10T02:37:18Z
2020-08-10T00:39:33Z,42.805,6.029,13.3018,4.60006,2470.156,2020-8-10T02:40:21Z
2020-08-10T00:42:36Z,42.805,6.029,13.3010,4.60001,2470.161,2020-8-10T02:43:25Z
2020-08-10T00:45:39Z,42.805,6.029,13.3018,4.60026,2470.171,2020-8-10T02:46:28Z
2020-08-10T00:48:43Z,42.805,6.029,13.3015,4.60026,2470.156,2020-8-10T02:49:31Z
2020-08-10T00:51:46Z,42.805,6.029,13.2988,4.60027,2470.18,2020-8-10T02:52:35Z
2020-08-10T00:54:49Z,42.805,6.029,13.2990,4.60006,2470.156,2020-8-10T02:55:38Z
2020-08-10T00:57:52Z,42.805,6.029,13.2981,4.60009,2470.147,2020-8-10T02:58:41Z
2020-08-10T01:00:56Z,42.805,6.029,13.3000,4.60006,2470.18,2020-8-10T03:01:44Z
2020-08-10T01:03:59Z,42.805,6.029,13.2974,4.60001,2470.133,2020-8-10T03:04:48Z
2020-08-10T01:07:03Z,42.805,6.029,13.2976,4.59997,2470.147,2020-8-10T03:07:51Z
2020-08-10T01:10:06Z,42.805,6.029,13.2984,4.60011,2470.133,2020-8-10T03:10:55Z
2020-08-10T01:13:09Z,42.805,6.029,13.2974,4.59999,2470.133,2020-8-10T03:13:58Z
2020-08-10T01:16:12Z,42.805,6.029,13.2980,4.60011,2470.171,2020-8-10T03:17:01Z
2020-08-10T01:19:15Z,42.805,6.029,13.2974,4.59989,2470.133,2020-8-10T03:20:04Z
2020-08-10T01:22:19Z,42.805,6.029,13.2971,4.59987,2470.156,2020-8-10T03:23:07Z
2020-08-10T01:25:22Z,42.805,6.029,13.2974,4.59986,2470.143,2020-8-10T03:26:11Z
2020-08-10T01:28:25Z,42.805,6.029,13.2974,4.59988,2470.156,2020-8-10T03:29:14Z
2020-08-10T01:31:28Z,42.805,6.029,13.2974,4.59982,2470.171,2020-8-10T03:32:17Z
2020-08-10T01:34:32Z,42.805,6.029,13.2972,4.59981,2470.11,2020-8-10T03:35:20Z
2020-08-10T01:37:35Z,42.805,6.029,13.2972,4.59981,2470.156,2020-8-10T03:38:24Z
2020-08-10T01:40:38Z,42.805,6.029,13.2976,4.59984,2470.156,2020-8-10T03:41:27Z
2020-08-10T01:43:41Z,42.805,6.029,13.2973,4.59987,2470.156,2020-8-10T03:44:30Z
2020-08-10T01:46:45Z,42.805,6.029,13.2974,4.59981,2470.171,2020-8-10T03:47:33Z
2020-08-10T01:49:48Z,42.805,6.029,13.2971,4.59982,2470.11,2020-8-10T03:50:37Z
2020-08-10T01:52:51Z,42.805,6.029,13.2971,4.59983,2470.11,2020-8-10T03:53:40Z
2020-08-10T01:55:54Z,42.805,6.029,13.2972,4.59984,2470.18,2020-8-10T03:56:43Z
2020-08-10T01:58:58Z,42.805,6.029,13.2971,4.59982,2470.133,2020-8-10T03:59:46Z
2020-08-10T02:02:01Z,42.805,6.029,13.2970,4.59988,2470.133,2020-8-10T04:02:50Z
2020-08-10T02:05:04Z,42.805,6.029,13.2971,4.59988,2470.133,2020-8-10T04:05:53Z
2020-08-10T02:08:07Z,42.805,6.029,13.2972,4.59980,2470.1,2020-8-10T04:08:56Z
2020-08-10T02:11:10Z,42.805,6.029,13.2974,4.59981,2470.124,2020-8-10T04:11:59Z
2020-08-10T02:14:14Z,42.805,6.029,13.2969,4.59977,2470.156,2020-8-10T04:15:02Z
2020-08-10T02:17:17Z,42.805,6.029,13.2969,4.59977,2470.1,2020-8-10T04:18:06Z
2020-08-10T02:20:20Z,42.805,6.029,13.2973,4.59980,2470.124,2020-8-10T04:21:09Z
2020-08-10T02:23:24Z,42.805,6.029,13.2970,4.59976,2470.11,2020-8-10T04:24:12Z
2020-08-10T02:26:27Z,42.805,6.029,13.2972,4.59976,2470.11,2020-8-10T04:27:16Z
2020-08-10T02:29:30Z,42.805,6.029,13.2969,4.59977,2470.087,2020-8-10T04:30:19Z
2020-08-10T02:32:33Z,42.805,6.029,13.2973,4.59978,2470.11,2020-8-10T04:33:22Z
2020-08-10T02:35:36Z,42.805,6.029,13.2971,4.59976,2470.11,2020-8-10T04:36:25Z
2020-08-10T02:38:40Z,42.805,6.029,13.2973,4.59978,2470.124,2020-8-10T04:39:28Z
2020-08-10T02:41:43Z,42.805,6.029,13.2968,4.59979,2470.11,2020-8-10T04:42:32Z
2020-08-10T02:44:46Z,42.805,6.029,13.2969,4.59981,2470.11,2020-8-10T04:45:35Z
2020-08-10T02:47:49Z,42.805,6.029,13.2972,4.59978,2470.133,2020-8-10T04:48:38Z
2020-08-10T02:50:53Z,42.805,6.029,13.2971,4.59976,2470.1,2020-8-10T04:51:41Z
2020-08-10T02:53:56Z,42.805,6.029,13.2969,4.59976,2470.1,2020-8-10T04:54:45Z
2020-08-10T02:56:59Z,42.805,6.029,13.2972,4.59975,2470.1,2020-8-10T04:57:48Z
2020-08-10T03:00:02Z,42.805,6.029,13.2968,4.59976,2470.087,2020-8-10T05:00:51Z
2020-08-10T03:03:06Z,42.805,6.029,13.2970,4.59974,2470.124,2020-8-10T05:03:54Z
2020-08-10T03:06:09Z,42.805,6.029,13.2971,4.59976,2470.11,2020-8-10T05:06:58Z
2020-08-10T03:09:12Z,42.805,6.029,13.2968,4.59975,2470.11,2020-8-10T05:10:01Z
2020-08-10T03:12:15Z,42.805,6.029,13.2968,4.59975,2470.1,2020-8-10T05:13:04Z
2020-08-10T03:15:18Z,42.805,6.029,13.2970,4.59974,2470.11,2020-8-10T05:16:07Z
2020-08-10T03:18:22Z,42.805,6.029,13.2967,4.59973,2470.087,2020-8-10T05:19:10Z
2020-08-10T03:21:25Z,42.805,6.029,13.2969,4.59974,2470.11,2020-8-10T05:22:14Z
2020-08-10T03:24:28Z,42.805,6.029,13.2976,4.59976,2470.087,2020-8-10T05:25:17Z
2020-08-10T03:27:31Z,42.805,6.029,13.2968,4.59975,2470.063,2020-8-10T05:28:20Z
2020-08-10T03:30:35Z,42.805,6.029,13.2968,4.59977,2470.087,2020-8-10T05:31:23Z
2020-08-10T03:33:38Z,42.805,6.029,13.2973,4.59976,2470.087,2020-8-10T05:34:27Z
2020-08-10T03:36:41Z,42.805,6.029,13.2973,4.59976,2470.087,2020-8-10T05:37:30Z
2020-08-10T03:39:44Z,42.805,6.029,13.2972,4.59976,2470.087,2020-8-10T05:40:33Z
2020-08-10T03:42:48Z,42.805,6.029,13.2969,4.59975,2470.087,2020-8-10T05:43:36Z
2020-08-10T03:45:51Z,42.805,6.029,13.2972,4.59976,2470.11,2020-8-10T05:46:40Z
2020-08-10T03:48:54Z,42.805,6.029,13.2967,4.59976,2470.087,2020-8-10T05:49:43Z
2020-08-10T03:51:57Z,42.805,6.029,13.2971,4.59975,2470.11,2020-8-10T05:52:46Z
2020-08-10T03:55:00Z,42.805,6.029,13.2967,4.59978,2470.1,2020-8-10T05:55:49Z
2020-08-10T03:58:04Z,42.805,6.029,13.2972,4.59974,2470.087,2020-8-10T05:58:52Z
2020-08-10T04:01:07Z,42.805,6.029,13.2968,4.59977,2470.053,2020-8-10T06:01:56Z
2020-08-10T04:04:10Z,42.805,6.029,13.2971,4.59978,2470.077,2020-8-10T06:04:59Z
2020-08-10T04:07:13Z,42.805,6.029,13.2972,4.59978,2470.087,2020-8-10T06:08:02Z
2020-08-10T04:10:17Z,42.805,6.029,13.2972,4.59976,2470.077,2020-8-10T06:11:05Z
2020-08-10T04:13:20Z,42.805,6.029,13.2969,4.59976,2470.1,2020-8-10T06:14:09Z
2020-08-10T04:16:23Z,42.805,6.029,13.2969,4.59976,2470.063,2020-8-10T06:17:12Z
2020-08-10T04:19:26Z,42.805,6.029,13.2971,4.59976,2470.077,2020-8-10T06:20:15Z
2020-08-10T04:22:30Z,42.805,6.029,13.2967,4.59976,2470.077,2020-8-10T06:23:19Z
2020-08-10T04:25:33Z,42.805,6.029,13.2968,4.59977,2470.04,2020-8-10T06:26:22Z
2020-08-10T04:28:36Z,42.805,6.029,13.2970,4.59976,2470.1,2020-8-10T06:29:25Z
2020-08-10T04:31:39Z,42.805,6.029,13.2973,4.59979,2470.087,2020-8-10T06:32:28Z
2020-08-10T04:34:43Z,42.805,6.029,13.2970,4.59974,2470.087,2020-8-10T06:35:31Z
2020-08-10T04:37:46Z,42.805,6.029,13.2969,4.59976,2470.063,2020-8-10T06:38:35Z
2020-08-10T04:40:49Z,42.805,6.029,13.2968,4.59976,2470.087,2020-8-10T06:41:38Z
2020-08-10T04:43:52Z,42.805,6.029,13.2968,4.59976,2470.077,2020-8-10T06:44:41Z
2020-08-10T04:46:56Z,42.805,6.029,13.2968,4.59976,2470.04,2020-8-10T06:47:44Z
2020-08-10T04:49:59Z,42.805,6.029,13.2972,4.59976,2470.077,2020-8-10T06:50:48Z
2020-08-10T04:53:02Z,42.805,6.029,13.2969,4.59976,2470.04,2020-8-10T06:53:51Z
2020-08-10T04:56:05Z,42.805,6.029,13.2971,4.59975,2470.1,2020-8-10T06:56:54Z
2020-08-10T04:59:09Z,42.805,6.029,13.2971,4.59976,2470.063,2020-8-10T06:59:58Z
2020-08-10T05:02:12Z,42.805,6.029,13.2974,4.59975,2470.087,2020-8-10T07:03:01Z
2020-08-10T05:05:15Z,42.805,6.029,13.2974,4.59976,2470.077,2020-8-10T07:06:04Z
2020-08-10T05:08:18Z,42.805,6.029,13.2968,4.59977,2470.087,2020-8-10T07:09:07Z
2020-08-10T05:11:22Z,42.805,6.029,13.2971,4.59976,2470.077,2020-8-10T07:12:11Z
2020-08-10T05:14:25Z,42.805,6.029,13.2968,4.59981,2470.087,2020-8-10T07:15:14Z
2020-08-10T05:17:28Z,42.805,6.029,13.2971,4.59978,2470.1,2020-8-10T07:18:17Z
2020-08-10T05:20:32Z,42.805,6.029,13.2968,4.59975,2470.1,2020-8-10T07:21:21Z
2020-08-10T05:23:35Z,42.805,6.029,13.2971,4.59976,2470.087,2020-8-10T07:24:24Z
2020-08-10T05:26:38Z,42.805,6.029,13.2973,4.59975,2470.063,2020-8-10T07:27:27Z
2020-08-10T05:29:41Z,42.805,6.029,13.2972,4.59974,2470.063,2020-8-10T07:30:30Z
2020-08-10T05:32:45Z,42.805,6.029,13.2970,4.59974,2470.063,2020-8-10T07:33:33Z
2020-08-10T05:35:48Z,42.805,6.029,13.2968,4.59976,2470.063,2020-8-10T07:36:37Z
2020-08-10T05:38:51Z,42.805,6.029,13.2971,4.59976,2470.04,2020-8-10T07:39:40Z
2020-08-10T05:41:54Z,42.805,6.029,13.2971,4.59976,2470.063,2020-8-10T07:42:43Z
2020-08-10T05:44:58Z,42.805,6.029,13.2973,4.59977,2470.077,2020-8-10T07:45:47Z
2020-08-10T05:48:01Z,42.805,6.029,13.2972,4.59978,2470.063,2020-8-10T07:48:50Z
2020-08-10T05:51:04Z,42.805,6.029,13.2971,4.59976,2470.087,2020-8-10T07:51:53Z
2020-08-10T05:54:08Z,42.805,6.029,13.2973,4.59975,2470.063,2020-8-10T07:54:56Z
2020-08-10T05:57:11Z,42.805,6.029,13.2971,4.59975,2470.049,2020-8-10T07:58:00Z
2020-08-10T06:00:14Z,42.805,6.029,13.2971,4.59976,2470.1,2020-8-10T08:01:03Z
2020-08-10T06:03:17Z,42.805,6.029,13.2973,4.59979,2470.063,2020-8-10T08:04:06Z
2020-08-10T06:06:21Z,42.805,6.029,13.2973,4.59977,2470.063,2020-8-10T08:07:09Z
2020-08-10T06:09:24Z,42.805,6.029,13.2971,4.59975,2470.087,2020-8-10T08:10:13Z
2020-08-10T06:12:27Z,42.805,6.029,13.2969,4.59978,2470.063,2020-8-10T08:13:16Z
2020-08-10T06:15:30Z,42.805,6.029,13.2970,4.59975,2470.1,2020-8-10T08:16:19Z
2020-08-10T06:18:34Z,42.805,6.029,13.2970,4.59975,2470.04,2020-8-10T08:19:23Z
2020-08-10T06:21:37Z,42.805,6.029,13.2972,4.59976,2470.077,2020-8-10T08:22:26Z
2020-08-10T06:24:40Z,42.805,6.029,13.2967,4.59975,2470.087,2020-8-10T08:25:29Z
2020-08-10T06:27:44Z,42.805,6.029,13.2973,4.59976,2470.063,2020-8-10T08:28:32Z
2020-08-10T06:30:47Z,42.805,6.029,13.2971,4.59975,2470.049,2020-8-10T08:31:36Z
2020-08-10T06:33:50Z,42.805,6.029,13.2971,4.59976,2470.1,2020-8-10T08:34:39Z
2020-08-10T06:36:54Z,42.805,6.029,13.2973,4.59976,2470.077,2020-8-10T08:37:42Z
2020-08-10T06:39:57Z,42.805,6.029,13.2974,4.59978,2470.087,2020-8-10T08:40:46Z
2020-08-10T06:43:00Z,42.805,6.029,13.2969,4.59976,2470.063,2020-8-10T08:43:49Z
2020-08-10T06:46:03Z,42.805,6.029,13.2969,4.59976,2470.087,2020-8-10T08:46:52Z
2020-08-10T06:49:06Z,42.805,6.029,13.2969,4.59978,2470.1,2020-8-10T08:49:55Z
2020-08-10T06:52:10Z,42.805,6.029,13.2969,4.59976,2470.087,2020-8-10T08:52:59Z
2020-08-10T06:55:13Z,42.805,6.029,13.2969,4.59976,2470.087,2020-8-10T08:56:02Z
2020-08-10T06:58:16Z,42.805,6.029,13.2971,4.59976,2470.087,2020-8-10T08:59:05Z
2020-08-10T07:01:20Z,42.805,6.029,13.2974,4.59976,2470.077,2020-8-10T09:02:09Z
2020-08-10T07:04:23Z,42.805,6.029,13.2972,4.59976,2470.1,2020-8-10T09:05:12Z
2020-08-10T07:07:26Z,42.805,6.029,13.2973,4.59975,2470.087,2020-8-10T09:08:15Z
2020-08-10T07:10:29Z,42.805,6.029,13.2971,4.59978,2470.053,2020-8-10T09:11:18Z
2020-08-10T07:13:33Z,42.805,6.029,13.2968,4.59975,2470.124,2020-8-10T09:14:22Z
2020-08-10T07:16:36Z,42.805,6.029,13.2971,4.59973,2470.077,2020-8-10T09:17:25Z
2020-08-10T07:19:39Z,42.805,6.029,13.2970,4.59975,2470.087,2020-8-10T09:20:28Z
2020-08-10T07:22:42Z,42.805,6.029,13.2968,4.59975,2470.063,2020-8-10T09:23:31Z
2020-08-10T07:25:46Z,42.805,6.029,13.2969,4.59976,2470.087,2020-8-10T09:26:34Z
2020-08-10T07:28:49Z,42.805,6.029,13.2972,4.59975,2470.04,2020-8-10T09:29:38Z
2020-08-10T07:31:52Z,42.805,6.029,13.2971,4.59976,2470.087,2020-8-10T09:32:41Z
2020-08-10T07:34:56Z,42.805,6.029,13.2968,4.59976,2470.1,2020-8-10T09:35:44Z
2020-08-10T07:37:59Z,42.805,6.029,13.2974,4.59974,2470.1,2020-8-10T09:38:48Z
2020-08-10T07:41:02Z,42.805,6.029,13.2969,4.59978,2470.063,2020-8-10T09:41:51Z
2020-08-10T07:44:05Z,42.805,6.029,13.2973,4.59978,2470.063,2020-8-10T09:44:54Z
2020-08-10T07:47:08Z,42.805,6.029,13.2970,4.59976,2470.1,2020-8-10T09:47:57Z
2020-08-10T07:50:12Z,42.805,6.029,13.2971,4.59981,2470.087,2020-8-10T09:51:01Z
2020-08-10T07:53:15Z,42.805,6.029,13.2971,4.59976,2470.087,2020-8-10T09:54:04Z
2020-08-10T07:56:18Z,42.805,6.029,13.2970,4.59975,2470.087,2020-8-10T09:57:07Z
2020-08-10T07:59:21Z,42.805,6.029,13.2968,4.59974,2470.1,2020-8-10T10:00:10Z
2020-08-10T08:02:25Z,42.805,6.029,13.2971,4.59973,2470.11,2020-8-10T10:03:14Z
2020-08-10T08:05:28Z,42.805,6.029,13.2968,4.59978,2470.124,2020-8-10T10:06:17Z
2020-08-10T08:08:31Z,42.805,6.029,13.2972,4.59975,2470.1,2020-8-10T10:09:20Z
2020-08-10T08:11:34Z,42.805,6.029,13.2970,4.59974,2470.11,2020-8-10T10:12:23Z
2020-08-10T08:14:38Z,42.805,6.029,13.2970,4.59977,2470.087,2020-8-10T10:15:26Z
2020-08-10T08:17:41Z,42.805,6.029,13.2971,4.59978,2470.11,2020-8-10T10:18:30Z
2020-08-10T08:20:44Z,42.805,6.029,13.2972,4.59980,2470.087,2020-8-10T10:21:33Z
2020-08-10T08:23:47Z,42.805,6.029,13.2969,4.59978,2470.1,2020-8-10T10:24:36Z
2020-08-10T08:26:51Z,42.805,6.029,13.2971,4.59976,2470.133,2020-8-10T10:27:39Z
2020-08-10T08:29:54Z,42.805,6.029,13.2971,4.59978,2470.11,2020-8-10T10:30:43Z
2020-08-10T08:32:57Z,42.805,6.029,13.2968,4.59973,2470.11,2020-8-10T10:33:46Z
2020-08-10T08:36:00Z,42.805,6.029,13.2968,4.59981,2470.147,2020-8-10T10:36:49Z
2020-08-10T08:39:04Z,42.805,6.029,13.2969,4.59976,2470.147,2020-8-10T10:39:52Z
2020-08-10T08:42:07Z,42.805,6.029,13.2973,4.59977,2470.087,2020-8-10T10:42:55Z
2020-08-10T08:45:10Z,42.805,6.029,13.2971,4.59974,2470.087,2020-8-10T10:45:59Z
2020-08-10T08:48:13Z,42.805,6.029,13.2971,4.59973,2470.124,2020-8-10T10:49:02Z
2020-08-10T08:51:16Z,42.805,6.029,13.2969,4.59974,2470.11,2020-8-10T10:52:05Z
2020-08-10T08:54:20Z,42.805,6.029,13.2972,4.59974,2470.077,2020-8-10T10:55:09Z
2020-08-10T08:57:23Z,42.805,6.029,13.2969,4.59978,2470.124,2020-8-10T10:58:12Z
2020-08-10T09:00:26Z,42.805,6.029,13.2974,4.59976,2470.156,2020-8-10T11:01:15Z
2020-08-10T09:03:30Z,42.805,6.029,13.2971,4.59977,2470.11,2020-8-10T11:04:18Z
2020-08-10T09:06:33Z,42.805,6.029,13.2970,4.59976,2470.147,2020-8-10T11:07:22Z
2020-08-10T09:09:36Z,42.805,6.029,13.2971,4.59976,2470.11,2020-8-10T11:10:25Z
2020-08-10T09:12:39Z,42.805,6.029,13.2972,4.59986,2470.147,2020-8-10T11:13:28Z
2020-08-10T09:15:43Z,42.805,6.029,13.2968,4.59978,2470.171,2020-8-10T11:16:31Z
2020-08-10T09:18:46Z,42.805,6.029,13.2976,4.59978,2470.147,2020-8-10T11:19:35Z
2020-08-10T09:21:49Z,42.805,6.029,13.2972,4.59980,2470.147,2020-8-10T11:22:38Z
2020-08-10T09:24:53Z,42.805,6.029,13.2974,4.59978,2470.133,2020-8-10T11:25:41Z
2020-08-10T09:27:56Z,42.805,6.029,13.2974,4.59979,2470.133,2020-8-10T11:28:45Z
2020-08-10T09:30:59Z,42.805,6.029,13.2968,4.59986,2470.133,2020-8-10T11:31:48Z
2020-08-10T09:34:02Z,42.805,6.029,13.2971,4.59985,2470.171,2020-8-10T11:34:51Z
2020-08-10T09:37:06Z,42.805,6.029,13.2971,4.59981,2470.171,2020-8-10T11:37:54Z
2020-08-10T09:40:09Z,42.805,6.029,13.2973,4.59973,2470.124,2020-8-10T11:40:58Z
2020-08-10T09:43:12Z,42.805,6.029,13.2968,4.59978,2470.147,2020-8-10T11:44:01Z
2020-08-10T09:46:15Z,42.805,6.029,13.2968,4.59976,2470.147,2020-8-10T11:47:04Z
2020-08-10T09:49:19Z,42.805,6.029,13.2974,4.59980,2470.147,2020-8-10T11:50:07Z
2020-08-10T09:52:22Z,42.805,6.029,13.2974,4.59979,2470.156,2020-8-10T11:53:11Z
2020-08-10T09:55:25Z,42.805,6.029,13.2972,4.59980,2470.156,2020-8-10T11:56:14Z
2020-08-10T09:58:28Z,42.805,6.029,13.2974,4.59983,2470.124,2020-8-10T11:59:17Z
2020-08-10T10:01:31Z,42.805,6.029,13.2968,4.59976,2470.171,2020-8-10T12:02:20Z
2020-08-10T10:04:35Z,42.805,6.029,13.2970,4.59975,2470.156,2020-8-10T12:05:24Z
2020-08-10T10:07:38Z,42.805,6.029,13.2971,4.59985,2470.133,2020-8-10T12:08:27Z
2020-08-10T10:10:41Z,42.805,6.029,13.2972,4.59991,2470.18,2020-8-10T12:11:30Z
2020-08-10T10:13:45Z,42.805,6.029,13.2978,4.59984,2470.119,2020-8-10T12:14:33Z
2020-08-10T10:16:48Z,42.805,6.029,13.2976,4.59980,2470.156,2020-8-10T12:17:37Z
2020-08-10T10:19:51Z,42.805,6.029,13.2974,4.59995,2470.156,2020-8-10T12:20:40Z
2020-08-10T10:22:54Z,42.805,6.029,13.2972,4.59989,2470.171,2020-8-10T12:23:43Z
2020-08-10T10:25:58Z,42.805,6.029,13.2969,4.59983,2470.171,2020-8-10T12:26:46Z
2020-08-10T10:29:01Z,42.805,6.029,13.2969,4.60001,2470.156,2020-8-10T12:29:50Z
2020-08-10T10:32:04Z,42.805,6.029,13.2973,4.60000,2470.171,2020-8-10T12:32:53Z
2020-08-10T10:35:07Z,42.805,6.029,13.2976,4.59992,2470.18,2020-8-10T12:35:56Z
2020-08-10T10:38:11Z,42.805,6.029,13.2972,4.59987,2470.147,2020-8-10T12:38:59Z
2020-08-10T10:41:14Z,42.805,6.029,13.2973,4.59986,2470.156,2020-8-10T12:42:03Z
2020-08-10T10:44:17Z,42.805,6.029,13.2977,4.59980,2470.156,2020-8-10T12:45:06Z
2020-08-10T10:47:20Z,42.805,6.029,13.2967,4.59993,2470.18,2020-8-10T12:48:09Z
2020-08-10T10:50:23Z,42.805,6.029,13.2970,4.59990,2470.171,2020-8-10T12:51:12Z
2020-08-10T10:53:27Z,42.805,6.029,13.2972,4.59995,2470.156,2020-8-10T12:54:15Z
2020-08-10T10:56:30Z,42.805,6.029,13.2976,4.59991,2470.194,2020-8-10T12:57:19Z
2020-08-10T10:59:33Z,42.805,6.029,13.2969,4.59984,2470.133,2020-8-10T13:00:22Z
2020-08-10T11:02:37Z,42.805,6.029,13.2974,4.59999,2470.156,2020-8-10T13:03:25Z
2020-08-10T11:05:40Z,42.805,6.029,13.2969,4.59997,2470.18,2020-8-10T13:06:29Z
2020-08-10T11:08:43Z,42.805,6.029,13.2974,4.59981,2470.18,2020-8-10T13:09:32Z
2020-08-10T11:11:46Z,42.805,6.029,13.2972,4.59997,2470.18,2020-8-10T13:12:35Z
2020-08-10T11:14:50Z,42.805,6.029,13.2971,4.60008,2470.156,2020-8-10T13:15:38Z
2020-08-10T11:17:53Z,42.805,6.029,13.2981,4.59984,2470.171,2020-8-10T13:18:42Z
2020-08-10T11:20:56Z,42.805,6.029,13.2974,4.59991,2470.156,2020-8-10T13:21:45Z
2020-08-10T11:23:59Z,42.805,6.029,13.2967,4.59988,2470.147,2020-8-10T13:24:48Z
2020-08-10T11:27:02Z,42.805,6.029,13.2974,4.59994,2470.156,2020-8-10T13:27:51Z
2020-08-10T11:30:06Z,42.805,6.029,13.2970,4.59988,2470.171,2020-8-10T13:30:54Z
2020-08-10T11:33:09Z,42.805,6.029,13.2970,4.60000,2470.133,2020-8-10T13:33:58Z
2020-08-10T11:36:12Z,42.805,6.029,13.2972,4.59978,2470.194,2020-8-10T13:37:01Z
2020-08-10T11:39:15Z,42.805,6.029,13.2972,4.59977,2470.156,2020-8-10T13:40:04Z
2020-08-10T11:42:18Z,42.805,6.029,13.2972,4.59974,2470.18,2020-8-10T13:43:07Z
2020-08-10T11:45:22Z,42.805,6.029,13.2979,4.59976,2470.147,2020-8-10T13:46:11Z
2020-08-10T11:48:25Z,42.805,6.029,13.2974,4.59989,2470.171,2020-8-10T13:49:14Z
2020-08-10T11:51:29Z,42.805,6.029,13.2973,4.59985,2470.124,2020-8-10T13:52:17Z
2020-08-10T11:54:32Z,42.805,6.029,13.2976,4.59993,2470.156,2020-8-10T13:55:21Z
2020-08-10T11:57:35Z,42.805,6.029,13.2979,4.60006,2470.171,2020-8-10T13:58:24Z
2020-08-10T12:00:38Z,42.805,6.029,13.2986,4.60025,2470.156,2020-8-10T14:01:27Z
2020-08-10T12:03:41Z,42.805,6.029,13.2999,4.60035,2470.171,2020-8-10T14:04:30Z
2020-08-10T12:06:45Z,42.805,6.029,13.3016,4.60039,2470.194,2020-8-10T14:07:34Z
2020-08-10T12:09:48Z,42.805,6.029,13.3027,4.60030,2470.133,2020-8-10T14:10:37Z
2020-08-10T12:12:51Z,42.805,6.029,13.3014,4.60006,2470.133,2020-8-10T14:13:40Z
2020-08-10T12:15:55Z,42.805,6.029,13.3026,4.60044,2470.171,2020-8-10T14:16:43Z
2020-08-10T12:18:58Z,42.805,6.029,13.3031,4.60023,2470.171,2020-8-10T14:19:47Z
2020-08-10T12:22:01Z,42.805,6.029,13.3033,4.60008,2470.156,2020-8-10T14:22:50Z
2020-08-10T12:25:04Z,42.805,6.029,13.3046,4.60044,2470.171,2020-8-10T14:25:53Z
2020-08-10T12:28:07Z,42.805,6.029,13.3048,4.60030,2470.147,2020-8-10T14:28:56Z
2020-08-10T12:31:11Z,42.805,6.029,13.3044,4.60034,2470.11,2020-8-10T14:31:59Z
2020-08-10T12:34:14Z,42.805,6.029,13.3048,4.60032,2470.133,2020-8-10T14:35:03Z
2020-08-10T12:37:17Z,42.805,6.029,13.3043,4.60028,2470.124,2020-8-10T14:38:06Z
2020-08-10T12:40:20Z,42.805,6.029,13.3044,4.60031,2470.147,2020-8-10T14:41:09Z
2020-08-10T12:43:24Z,42.805,6.029,13.3046,4.60004,2470.156,2020-8-10T14:44:12Z
2020-08-10T12:46:27Z,42.805,6.029,13.3056,4.60009,2470.147,2020-8-10T14:47:16Z
2020-08-10T12:49:30Z,42.805,6.029,13.3052,4.60004,2470.124,2020-8-10T14:50:19Z
2020-08-10T12:52:33Z,42.805,6.029,13.3051,4.60008,2470.133,2020-8-10T14:53:22Z
2020-08-10T12:55:37Z,42.805,6.029,13.3046,4.60003,2470.147,2020-8-10T14:56:25Z
2020-08-10T12:58:40Z,42.805,6.029,13.3028,4.60006,2470.133,2020-8-10T14:59:29Z
2020-08-10T13:01:43Z,42.805,6.029,13.3034,4.60014,2470.11,2020-8-10T15:02:32Z
2020-08-10T13:04:46Z,42.805,6.029,13.3040,4.60014,2470.133,2020-8-10T15:05:35Z
2020-08-10T13:07:50Z,42.805,6.029,13.3026,4.60006,2470.147,2020-8-10T15:08:38Z
2020-08-10T13:10:53Z,42.805,6.029,13.3026,4.60002,2470.156,2020-8-10T15:11:42Z
2020-08-10T13:13:56Z,42.805,6.029,13.3016,4.60019,2470.147,2020-8-10T15:14:45Z
2020-08-10T13:16:59Z,42.805,6.029,13.3028,4.60020,2470.147,2020-8-10T15:17:48Z
2020-08-10T13:20:03Z,42.805,6.029,13.3033,4.60021,2470.124,2020-8-10T15:20:51Z
2020-08-10T13:23:06Z,42.805,6.029,13.3029,4.60016,2470.171,2020-8-10T15:23:55Z
2020-08-10T13:26:09Z,42.805,6.029,13.3048,4.60013,2470.124,2020-8-10T15:26:58Z
2020-08-10T13:29:12Z,42.805,6.029,13.3042,4.60004,2470.11,2020-8-10T15:30:01Z
2020-08-10T13:32:15Z,42.805,6.029,13.3029,4.60014,2470.171,2020-8-10T15:33:04Z
2020-08-10T13:35:19Z,42.805,6.029,13.3033,4.60003,2470.133,2020-8-10T15:36:07Z
2020-08-10T13:38:22Z,42.805,6.029,13.3020,4.60025,2470.133,2020-8-10T15:39:11Z
2020-08-10T13:41:25Z,42.805,6.029,13.3025,4.60007,2470.11,2020-8-10T15:42:14Z
2020-08-10T13:44:28Z,42.805,6.029,13.3011,4.59998,2470.147,2020-8-10T15:45:17Z
2020-08-10T13:47:32Z,42.805,6.029,13.3022,4.60014,2470.124,2020-8-10T15:48:20Z
2020-08-10T13:50:35Z,42.805,6.029,13.3035,4.60019,2470.133,2020-8-10T15:51:24Z
2020-08-10T13:53:38Z,42.805,6.029,13.3027,4.60005,2470.1,2020-8-10T15:54:27Z
2020-08-10T13:56:42Z,42.805,6.029,13.3024,4.60003,2470.11,2020-8-10T15:57:30Z
2020-08-10T13:59:45Z,42.805,6.029,13.3009,4.60003,2470.124,2020-8-10T16:00:34Z
2020-08-10T14:02:48Z,42.805,6.029,13.3020,4.60010,2470.11,2020-8-10T16:03:37Z
2020-08-10T14:05:52Z,42.805,6.029,13.3036,4.59999,2470.124,2020-8-10T16:06:40Z
2020-08-10T14:08:55Z,42.805,6.029,13.3023,4.60001,2470.11,2020-8-10T16:09:44Z
2020-08-10T14:11:58Z,42.805,6.029,13.3016,4.60005,2470.147,2020-8-10T16:12:47Z
2020-08-10T14:15:01Z,42.805,6.029,13.3014,4.60013,2470.11,2020-8-10T16:15:50Z
2020-08-10T14:18:05Z,42.805,6.029,13.3015,4.60010,2470.11,2020-8-10T16:18:53Z
2020-08-10T14:21:08Z,42.805,6.029,13.3034,4.60009,2470.147,2020-8-10T16:21:57Z
2020-08-10T14:24:11Z,42.805,6.029,13.3034,4.60004,2470.1,2020-8-10T16:25:00Z
2020-08-10T14:27:14Z,42.805,6.029,13.3025,4.60009,2470.147,2020-8-10T16:28:03Z
2020-08-10T14:30:17Z,42.805,6.029,13.3015,4.60014,2470.1,2020-8-10T16:31:06Z
2020-08-10T14:33:21Z,42.805,6.029,13.3039,4.60009,2470.087,2020-8-10T16:34:09Z
2020-08-10T14:36:24Z,42.805,6.029,13.3030,4.60009,2470.11,2020-8-10T16:37:13Z
2020-08-10T14:39:27Z,42.805,6.029,13.3041,4.60003,2470.124,2020-8-10T16:40:16Z
2020-08-10T14:42:31Z,42.805,6.029,13.3023,4.60012,2470.124,2020-8-10T16:43:19Z
2020-08-10T14:45:34Z,42.805,6.029,13.3015,4.60004,2470.124,2020-8-10T16:46:23Z
2020-08-10T14:48:37Z,42.805,6.029,13.3014,4.60009,2470.124,2020-8-10T16:49:26Z
2020-08-10T14:51:40Z,42.805,6.029,13.3014,4.60011,2470.1,2020-8-10T16:52:29Z
2020-08-10T14:54:44Z,42.805,6.029,13.3005,4.60010,2470.11,2020-8-10T16:55:33Z
2020-08-10T14:57:47Z,42.805,6.029,13.3015,4.60009,2470.124,2020-8-10T16:58:36Z
2020-08-10T15:00:50Z,42.805,6.029,13.3029,4.60007,2470.087,2020-8-10T17:01:39Z
2020-08-10T15:03:54Z,42.805,6.029,13.3002,4.60011,2470.124,2020-8-10T17:04:42Z
2020-08-10T15:06:57Z,42.805,6.029,13.3015,4.60006,2470.063,2020-8-10T17:07:46Z
2020-08-10T15:10:00Z,42.805,6.029,13.3010,4.60000,2470.1,2020-8-10T17:10:49Z
2020-08-10T15:13:03Z,42.805,6.029,13.3011,4.60003,2470.1,2020-8-10T17:13:52Z
2020-08-10T15:16:07Z,42.805,6.029,13.3001,4.60003,2470.11,2020-8-10T17:16:55Z